Ft Riley, KS

5:03 PM CDT on July 20, 2017 (GMT -0500)
Marshall Army Air Field

Weather History for KFRI - September, 2013

Change the Weather History Date:

Friday, September 27, 2013

  Actual Average (KMHK) Record (KMHK)
Temperature  
Mean Temperature 78 °F -  
Max Temperature 89 °F 74 °F 91 °F (2000)
Min Temperature 68 °F 47 °F 41 °F (2000)
Cooling Degree Days 14    
Growing Degree Days 28 (Base 50)    
Moisture  
Dew Point 59 °F    
Average Humidity 53    
Maximum Humidity 72    
Minimum Humidity 37    
Precipitation  
Precipitation 0.00 in - - ()
Sea Level Pressure  
Sea Level Pressure 29.80 in    
Wind  
Wind Speed 16 mph (SSE)    
Max Wind Speed 24 mph    
Max Gust Speed 32 mph    
Visibility 10 miles    
Events      
Averages and records for this station are not official NWS values.
T = Trace of Precipitation, MM = Missing Value Source: NWS Daily Summary

Daily Weather History Graph

Daily Weather History Graph

Search for Another Location

Airport or City:

Trip Planner

Search our weather history database for the weather conditions in past years. The results will help you decide how hot, cold, wet, or windy it might be!

Date:

Astronomy

Sep. 27, 2013 Rise Set
Actual Time 7:19 AM CDT 7:15 PM CDT
Civil Twilight 6:52 AM CDT 7:42 PM CDT
Nautical Twilight 6:21 AM CDT 8:13 PM CDT
Astronomical Twilight 5:50 AM CDT 8:44 PM CDT
Moon 12:18 AM CDT (9/27) 2:52 PM CDT (9/27)
Length of Visible Light 12h 49m
Length of Day
11h 56m
Last Quarter, 45% of the Moon is Illuminated
Sep 27
Last Quarter
Oct 4
New
Oct 11
First Quarter
Oct 18
Full
Oct 26
Last Quarter

Hourly Weather History & Observations

Time (CDT) Temp. Heat Index Dew Point Humidity Pressure Visibility Wind Dir Wind Speed Gust Speed Precip Events Conditions
12:58 AM 75.9 °F - 59.0 °F 56% 29.80 in 10.0 mi SSE 17.3 mph 25.3 mph N/A   Clear
1:58 AM 75.2 °F - 58.8 °F 57% 29.79 in 10.0 mi SSE 15.0 mph 24.2 mph N/A   Clear
2:58 AM 73.8 °F - 58.8 °F 59% 29.81 in 10.0 mi SSE 15.0 mph - N/A   Clear
3:58 AM 71.8 °F - 59.2 °F 64% 29.81 in 10.0 mi SSE 10.4 mph 19.6 mph N/A   Scattered Clouds
4:58 AM 70.7 °F - 59.0 °F 66% 29.81 in 10.0 mi SSE 11.5 mph - N/A   Scattered Clouds
5:58 AM 69.8 °F - 59.2 °F 69% 29.82 in 10.0 mi SSE 13.8 mph - N/A   Clear
6:58 AM 68.5 °F - 59.0 °F 72% 29.83 in 10.0 mi SSE 13.8 mph 19.6 mph N/A   Overcast
7:58 AM 68.4 °F - 59.2 °F 72% 29.84 in 10.0 mi SSE 16.1 mph 21.9 mph N/A   Scattered Clouds
8:58 AM 71.6 °F - 59.4 °F 65% 29.85 in 10.0 mi SSE 17.3 mph 26.5 mph N/A   Scattered Clouds
9:58 AM 75.6 °F - 59.5 °F 57% 29.86 in 10.0 mi SSE 12.7 mph 26.5 mph N/A   Clear
10:58 AM 81.1 °F 81.5 °F 59.4 °F 47% 29.85 in 10.0 mi SSE 24.2 mph 31.1 mph N/A   Clear
11:58 AM 83.5 °F 83.7 °F 60.6 °F 46% 29.84 in 10.0 mi SSE 20.7 mph 31.1 mph N/A   Clear
12:58 PM 86.9 °F 86.7 °F 60.8 °F 41% 29.81 in 10.0 mi South 23.0 mph 32.2 mph N/A   Clear
1:58 PM 88.0 °F 87.6 °F 59.9 °F 39% 29.79 in 10.0 mi South 23.0 mph 32.2 mph N/A   Clear
2:58 PM 89.1 °F 88.5 °F 59.5 °F 37% 29.78 in 10.0 mi SSE 21.9 mph 29.9 mph N/A   Clear
3:58 PM 88.3 °F 87.8 °F 59.9 °F 38% 29.77 in 10.0 mi SSE 19.6 mph 31.1 mph N/A   Clear
4:58 PM 87.1 °F 86.5 °F 59.0 °F 39% 29.77 in 10.0 mi South 20.7 mph 29.9 mph N/A   Clear
5:58 PM 85.6 °F 85.2 °F 59.2 °F 41% 29.77 in 10.0 mi SSE 19.6 mph 25.3 mph N/A   Partly Cloudy
6:58 PM 82.2 °F 82.3 °F 59.2 °F 45% 29.77 in 10.0 mi SSE 17.3 mph 25.3 mph N/A   Partly Cloudy
7:58 PM 78.8 °F - 58.6 °F 50% 29.77 in 10.0 mi SSE 11.5 mph - N/A   Partly Cloudy
8:58 PM 77.9 °F - 57.0 °F 48% 29.78 in 10.0 mi SSE 12.7 mph 20.7 mph N/A   Clear
9:58 PM 76.6 °F - 58.3 °F 53% 29.78 in 10.0 mi SSE 12.7 mph 18.4 mph N/A   Partly Cloudy
10:58 PM 76.5 °F - 58.5 °F 54% 29.77 in 10.0 mi SSE 18.4 mph 25.3 mph N/A   Clear
11:58 PM 75.4 °F - 58.6 °F 56% 29.75 in 10.0 mi SSE 15.0 mph 26.5 mph N/A   Clear